GW1429 Weather Reports


Display with metric or nautical units.
time (UTC)temp
F
wind
direction
speed
MPH
gust
MPH
rain 1hr
in
rain 24hr
in
rain mn
in
humidity
%
barometer
mb
20220927214255 89 71 6.0 9.0 0.00 0.00 0.00 22 1053.2
20220927213754 88 57 3.0 10.0 0.00 0.00 0.00 23 1053.3
20220927213253 89 62 9.0 10.0 0.00 0.00 0.00 23 1053.3
20220927212753 88 116 4.0 21.0 0.00 0.00 0.00 23 1053.2
20220927212253 89 121 3.0 10.0 0.00 0.00 0.00 23 1053.1
20220927211752 89 72 5.0 9.0 0.00 0.00 0.00 22 1053.3
20220927211251 89 81 7.0 11.0 0.00 0.00 0.00 23 1053.3
20220927210749 89 114 6.0 8.0 0.00 0.00 0.00 23 1053.4
20220927210249 89 76 8.0 15.0 0.00 0.00 0.00 23 1053.3
20220927205748 88 101 13.0 13.0 0.00 0.00 0.00 23 1053.1
20220927205248 88 121 6.0 13.0 0.00 0.00 0.00 24 1053.2
20220927204747 88 136 8.0 14.0 0.00 0.00 0.00 24 1053.2
20220927204246 88 90 4.0 15.0 0.00 0.00 0.00 24 1053.4
20220927203745 87 113 5.0 17.0 0.00 0.00 0.00 23 1053.4
20220927203245 88 142 7.0 19.0 0.00 0.00 0.00 23 1053.5
20220927202744 88 96 3.0 10.0 0.00 0.00 0.00 22 1053.6
20220927202243 88 6 0.0 7.0 0.00 0.00 0.00 22 1053.6
20220927201742 88 98 7.0 13.0 0.00 0.00 0.00 22 1053.7
20220927201242 87 106 6.0 14.0 0.00 0.00 0.00 22 1053.9
20220927200740 88 138 3.0 12.0 0.00 0.00 0.00 22 1053.8
20220927200239 87 100 2.0 11.0 0.00 0.00 0.00 22 1054.0
20220927195737 87 94 7.0 14.0 0.00 0.00 0.00 22 1054.1
20220927195236 87 98 5.0 14.0 0.00 0.00 0.00 22 1054.1
20220927194736 88 65 8.0 9.0 0.00 0.00 0.00 22 1054.1
20220927194235 87 135 3.0 5.0 0.00 0.00 0.00 22 1054.1
20220927193733 87 144 0.0 12.0 0.00 0.00 0.00 21 1054.3
20220927193233 87 128 13.0 15.0 0.00 0.00 0.00 21 1054.6
20220927192732 88 98 5.0 9.0 0.00 0.00 0.00 20 1054.4
20220927192228 87 116 3.0 14.0 0.00 0.00 0.00 22 1054.5
20220927191726 88 110 8.0 13.0 0.00 0.00 0.00 21 1054.8
20220927191226 87 113 4.0 8.0 0.00 0.00 0.00 22 1054.5
20220927190726 88 100 11.0 11.0 0.00 0.00 0.00 21 1054.8
20220927190225 89 346 3.0 7.0 0.00 0.00 0.00 21 1054.8
20220927185723 85 266 3.0 7.0 0.00 0.00 0.00 24 1055.0
20220927185221 86 96 3.0 8.0 0.00 0.00 0.00 24 1054.9
20220927184721 87 151 1.0 10.0 0.00 0.00 0.00 23 1055.1
20220927184220 86 117 3.0 11.0 0.00 0.00 0.00 25 1055.3
20220927183721 87 127 6.0 11.0 0.00 0.00 0.00 24 1055.1
20220927183220 88 118 8.0 9.0 0.00 0.00 0.00 24 1055.2
20220927182718 87 66 2.0 7.0 0.00 0.00 0.00 23 1055.2
20220927182217 87 255 1.0 6.0 0.00 0.00 0.00 23 1055.4
20220927181717 85 61 2.0 10.0 0.00 0.00 0.00 23 1055.3
20220927181215 86 290 3.0 7.0 0.00 0.00 0.00 23 1055.3
20220927180714 85 307 0.0 7.0 0.00 0.00 0.00 24 1055.6
20220927180213 86 79 7.0 7.0 0.00 0.00 0.00 24 1055.5
20220927175713 86 346 6.0 6.0 0.00 0.00 0.00 23 1055.6
20220927175211 84 118 4.0 10.0 0.00 0.00 0.00 24 1055.9
20220927174709 85 79 4.0 11.0 0.00 0.00 0.00 24 1055.8
20220927174209 87 208 0.0 4.0 0.00 0.00 0.00 24 1055.7
20220927173709 85 123 0.0 8.0 0.00 0.00 0.00 24 1055.8
20220927173207 85 206 4.0 6.0 0.00 0.00 0.00 25 1055.9
20220927172706 85 87 4.0 4.0 0.00 0.00 0.00 24 1056.2
20220927172206 86 99 3.0 9.0 0.00 0.00 0.00 25 1056.1
20220927171705 84 299 0.0 6.0 0.00 0.00 0.00 25 1055.9
20220927171205 83 205 3.0 7.0 0.00 0.00 0.00 27 1056.2
20220927170705 83 141 7.0 9.0 0.00 0.00 0.00 26 1056.1
20220927170203 83 158 5.0 11.0 0.00 0.00 0.00 27 1056.2
20220927165702 83 83 5.0 10.0 0.00 0.00 0.00 27 1056.3
20220927165202 84 67 7.0 7.0 0.00 0.00 0.00 27 1056.6
20220927164700 82 156 4.0 8.0 0.00 0.00 0.00 28 1056.4
20220927164159 85 106 7.0 8.0 0.00 0.00 0.00 27 1056.4
20220927163657 82 8 0.0 7.0 0.00 0.00 0.00 28 1056.6
20220927163157 83 339 5.0 7.0 0.00 0.00 0.00 29 1056.5
20220927162656 83 36 3.0 10.0 0.00 0.00 0.00 28 1056.4
20220927162155 84 135 3.0 5.0 0.00 0.00 0.00 28 1056.6
20220927161655 82 74 2.0 7.0 0.00 0.00 0.00 28 1056.7
20220927161155 81 323 2.0 5.0 0.00 0.00 0.00 29 1056.6
20220927160654 80 292 2.0 7.0 0.00 0.00 0.00 29 1056.7
20220927160154 82 112 3.0 3.0 0.00 0.00 0.00 28 1056.8
20220927155654 82 240 0.0 3.0 0.00 0.00 0.00 28 1056.6
20220927155154 80 68 2.0 4.0 0.00 0.00 0.00 29 1056.7
20220927154653 80 319 2.0 3.0 0.00 0.00 0.00 31 1056.7
20220927154152 79 264 2.0 4.0 0.00 0.00 0.00 31 1056.6
20220927153652 78 215 1.0 3.0 0.00 0.00 0.00 33 1056.5
20220927153152 79 329 6.0 6.0 0.00 0.00 0.00 32 1056.5
20220927152650 79 94 2.0 4.0 0.00 0.00 0.00 32 1056.4
20220927152149 78 3 5.0 5.0 0.00 0.00 0.00 33 1056.5
20220927151647 76 326 2.0 6.0 0.00 0.00 0.00 35 1056.4
20220927151147 77 297 2.0 4.0 0.00 0.00 0.00 35 1056.4
20220927150645 75 295 2.0 5.0 0.00 0.00 0.00 36 1056.3
20220927150144 75 347 3.0 4.0 0.00 0.00 0.00 37 1056.3
20220927145644 75 348 4.0 5.0 0.00 0.00 0.00 36 1056.5
20220927145144 74 341 3.0 5.0 0.00 0.00 0.00 37 1056.3
20220927144644 73 358 3.0 5.0 0.00 0.00 0.00 37 1056.4
20220927144143 73 311 2.0 6.0 0.00 0.00 0.00 38 1056.3
20220927143643 72 356 4.0 6.0 0.00 0.00 0.00 38 1056.2
20220927143142 72 301 2.0 5.0 0.00 0.00 0.00 39 1056.3
20220927142642 71 303 3.0 4.0 0.00 0.00 0.00 41 1056.1
20220927142140 70 290 2.0 5.0 0.00 0.00 0.00 41 1056.4
20220927141638 70 315 3.0 4.0 0.00 0.00 0.00 41 1056.1
20220927141138 69 318 3.0 5.0 0.00 0.00 0.00 43 1055.9
20220927140636 68 313 3.0 5.0 0.00 0.00 0.00 43 1055.9
20220927140136 68 304 3.0 5.0 0.00 0.00 0.00 43 1055.8
20220927135634 68 309 3.0 5.0 0.00 0.00 0.00 43 1055.8
20220927135132 68 330 4.0 5.0 0.00 0.00 0.00 43 1056.1
20220927134632 67 310 4.0 6.0 0.00 0.00 0.00 44 1055.7
20220927134130 67 317 4.0 5.0 0.00 0.00 0.00 44 1055.5
20220927133628 66 327 4.0 4.0 0.00 0.00 0.00 44 1055.7
20220927133128 66 307 0.0 5.0 0.00 0.00 0.00 45 1055.6
20220927132627 65 270 2.0 4.0 0.00 0.00 0.00 46 1055.7
20220927132127 64 288 2.0 5.0 0.00 0.00 0.00 46 1055.5
20220927131625 64 311 5.0 5.0 0.00 0.00 0.00 48 1055.4
20220927131125 64 270 2.0 2.0 0.00 0.00 0.00 49 1055.3
20220927130624 63 277 0.0 4.0 0.00 0.00 0.00 49 1055.5
20220927130121 62 334 4.0 7.0 0.00 0.00 0.00 49 1055.1
20220927125619 62 313 6.0 6.0 0.00 0.00 0.00 50 1055.1
20220927125118 62 324 2.0 5.0 0.00 0.00 0.00 50 1055.2
20220927124617 61 292 4.0 7.0 0.00 0.00 0.00 50 1055.1
20220927124116 61 317 5.0 6.0 0.00 0.00 0.00 51 1055.1
20220927123616 61 290 4.0 5.0 0.00 0.00 0.00 51 1055.0
20220927123115 60 297 3.0 5.0 0.00 0.00 0.00 52 1055.0
20220927122614 60 266 2.0 3.0 0.00 0.00 0.00 52 1054.9
20220927122112 60 293 4.0 5.0 0.00 0.00 0.00 52 1055.0
20220927121611 60 274 3.0 6.0 0.00 0.00 0.00 52 1054.8
20220927121111 60 312 0.0 3.0 0.00 0.00 0.00 53 1054.7
20220927120610 60 334 2.0 3.0 0.00 0.00 0.00 52 1054.8
20220927120108 61 301 2.0 6.0 0.00 0.00 0.00 52 1054.7
20220927115607 61 270 1.0 5.0 0.00 0.00 0.00 52 1054.8
20220927115107 61 307 2.0 3.0 0.00 0.00 0.00 51 1054.8
20220927114607 61 286 4.0 5.0 0.00 0.00 0.00 51 1054.9
20220927114106 61 289 3.0 5.0 0.00 0.00 0.00 51 1054.5
20220927113606 61 284 4.0 5.0 0.00 0.00 0.00 51 1054.6
20220927113105 61 294 3.0 5.0 0.00 0.00 0.00 51 1054.5
20220927112605 61 294 3.0 4.0 0.00 0.00 0.00 51 1054.4
20220927112104 61 314 4.0 5.0 0.00 0.00 0.00 51 1054.5
20220927111603 61 317 5.0 7.0 0.00 0.00 0.00 50 1054.4
20220927111102 61 310 3.0 5.0 0.00 0.00 0.00 50 1054.5
20220927110601 62 308 4.0 6.0 0.00 0.00 0.00 49 1054.3
20220927110100 62 336 5.0 6.0 0.00 0.00 0.00 49 1054.3
20220927105558 62 294 3.0 6.0 0.00 0.00 0.00 49 1054.2
20220927105058 62 299 2.0 5.0 0.00 0.00 0.00 50 1054.2
20220927104558 62 335 5.0 6.0 0.00 0.00 0.00 49 1054.1
20220927104056 62 322 5.0 6.0 0.00 0.00 0.00 49 1054.0
20220927103555 62 321 5.0 5.0 0.00 0.00 0.00 49 1054.2
20220927103054 62 308 3.0 4.0 0.00 0.00 0.00 49 1054.3
20220927102553 62 315 4.0 6.0 0.00 0.00 0.00 49 1054.2
20220927102052 62 288 2.0 5.0 0.00 0.00 0.00 50 1054.2
20220927101551 62 317 4.0 5.0 0.00 0.00 0.00 49 1054.0
20220927101050 62 329 5.0 5.0 0.00 0.00 0.00 49 1054.1
20220927100549 62 307 4.0 6.0 0.00 0.00 0.00 49 1054.1
20220927100048 62 299 2.0 4.0 0.00 0.00 0.00 50 1054.0
20220927095546 62 277 3.0 3.0 0.00 0.00 0.00 52 1054.2
20220927095046 62 291 4.0 4.0 0.00 0.00 0.00 51 1054.2
20220927094544 62 300 2.0 3.0 0.00 0.00 0.00 50 1054.0
20220927094042 63 282 2.0 5.0 0.00 0.00 0.00 49 1053.8
20220927093539 63 325 3.0 6.0 0.00 0.00 0.00 49 1053.9
20220927093038 62 275 2.0 5.0 0.00 0.00 0.00 50 1054.1
20220927092537 62 274 2.0 4.0 0.00 0.00 0.00 51 1054.0
20220927092037 61 259 3.0 3.0 0.00 0.00 0.00 53 1054.0
20220927091536 61 265 2.0 3.0 0.00 0.00 0.00 54 1053.9
20220927091037 61 285 1.0 3.0 0.00 0.00 0.00 55 1053.9
20220927090535 61 289 1.0 3.0 0.00 0.00 0.00 54 1054.1
20220927090033 61 281 3.0 5.0 0.00 0.00 0.00 54 1053.9
20220927085532 60 299 2.0 3.0 0.00 0.00 0.00 57 1053.9
20220927085032 60 275 2.0 2.0 0.00 0.00 0.00 58 1053.9
20220927084532 60 282 0.0 2.0 0.00 0.00 0.00 58 1053.8
20220927084031 61 203 0.0 3.0 0.00 0.00 0.00 57 1054.1
20220927083529 61 265 2.0 3.0 0.00 0.00 0.00 55 1053.9
20220927083029 61 265 4.0 4.0 0.00 0.00 0.00 56 1054.0
20220927082528 61 187 0.0 2.0 0.00 0.00 0.00 56 1054.1
20220927082027 62 270 1.0 2.0 0.00 0.00 0.00 54 1054.1
20220927081527 62 283 1.0 3.0 0.00 0.00 0.00 52 1054.1
20220927081026 62 263 1.0 3.0 0.00 0.00 0.00 53 1054.0
20220927080525 62 270 2.0 3.0 0.00 0.00 0.00 53 1054.1
20220927080024 63 198 1.0 4.0 0.00 0.00 0.00 52 1054.1
20220927075524 63 225 2.0 3.0 0.00 0.00 0.00 50 1054.2
20220927075024 65 306 1.0 3.0 0.00 0.00 0.00 46 1054.4
20220927074523 65 6 1.0 3.0 0.00 0.00 0.00 46 1054.4
20220927074022 65 315 2.0 3.0 0.00 0.00 0.00 45 1054.5
20220927073521 65 304 2.0 2.0 0.00 0.00 0.00 45 1054.4
20220927073020 66 294 0.0 3.0 0.00 0.00 0.00 44 1054.3
20220927072520 66 3 2.0 3.0 0.00 0.00 0.00 44 1054.1
20220927072020 66 324 2.0 5.0 0.00 0.00 0.00 44 1054.2
20220927071520 66 357 3.0 3.0 0.00 0.00 0.00 45 1054.3
20220927071018 66 346 2.0 3.0 0.00 0.00 0.00 44 1054.4
20220927070517 67 353 3.0 4.0 0.00 0.00 0.00 43 1054.5
20220927070018 67 0 3.0 3.0 0.00 0.00 0.00 43 1054.2
20220927065516 67 324 2.0 4.0 0.00 0.00 0.00 43 1054.2
20220927065014 68 352 4.0 5.0 0.00 0.00 0.00 42 1054.4
20220927064513 67 25 3.0 5.0 0.00 0.00 0.00 42 1054.4
20220927064011 68 23 4.0 5.0 0.00 0.00 0.00 42 1054.2
20220927063509 68 9 4.0 4.0 0.00 0.00 0.00 42 1054.3
20220927063009 68 0 3.0 4.0 0.00 0.00 0.00 42 1054.4
20220927062509 68 330 3.0 5.0 0.00 0.00 0.00 42 1054.3
20220927062008 68 354 3.0 5.0 0.00 0.00 0.00 43 1054.4
20220927061508 68 3 2.0 5.0 0.00 0.00 0.00 43 1054.3
20220927061006 68 354 3.0 4.0 0.00 0.00 0.00 43 1054.6
20220927060506 68 0 3.0 5.0 0.00 0.00 0.00 42 1054.6
20220927060005 68 8 3.0 5.0 0.00 0.00 0.00 42 1054.4
20220927055503 68 0 3.0 5.0 0.00 0.00 0.00 42 1054.3
20220927055001 68 341 3.0 4.0 0.00 0.00 0.00 43 1054.6
20220927054501 67 12 2.0 5.0 0.00 0.00 0.00 44 1054.7
20220927054001 67 2 3.0 4.0 0.00 0.00 0.00 45 1054.6
20220927053500 66 338 2.0 3.0 0.00 0.00 0.00 46 1054.6
20220927053000 66 8 0.0 0.0 0.00 0.00 0.00 47 1054.7
20220927052458 67 0 0.0 2.0 0.00 0.00 0.00 44 1054.5
20220927051958 68 350 2.0 3.0 0.00 0.00 0.00 44 1054.5
20220927051455 68 0 2.0 2.0 0.00 0.00 0.00 44 1054.3
20220927050955 68 8 2.0 3.0 0.00 0.00 0.00 44 1054.3
20220927050454 68 0 2.0 2.0 0.00 0.00 0.00 44 1054.4
20220927045954 68 11 2.0 3.0 0.00 0.00 0.00 43 1054.3
20220927045454 68 0 2.0 3.0 0.00 0.00 0.00 43 1054.4
20220927044953 68 0 0.0 1.0 0.00 0.00 0.00 44 1054.4
20220927044452 69 54 0.0 2.0 0.00 0.00 0.00 42 1054.3
20220927043951 69 16 2.0 3.0 0.00 0.00 0.00 42 1054.3
20220927043450 69 9 3.0 3.0 0.00 0.00 0.00 42 1054.2
20220927042950 69 14 2.0 3.0 0.00 0.00 0.00 42 1054.2
20220927042450 69 16 2.0 3.0 0.00 0.00 0.00 41 1054.3
20220927041948 70 15 0.0 2.0 0.00 0.00 0.00 41 1054.3
20220927041445 70 16 3.0 3.0 0.00 0.00 0.00 41 1054.4
20220927040944 70 90 2.0 3.0 0.00 0.00 0.00 41 1054.4
20220927040442 70 356 2.0 5.0 0.00 0.00 0.00 40 1054.2
20220927035942 71 51 2.0 4.0 0.00 0.00 0.00 40 1054.0
20220927035440 71 358 3.0 5.0 0.00 0.00 0.00 40 1054.1
20220927034939 71 56 2.0 4.0 0.00 0.00 0.00 40 1054.2
20220927034438 71 345 3.0 5.0 0.00 0.00 0.00 40 1054.3
20220927033936 71 16 3.0 4.0 0.00 0.00 0.00 40 1054.1
20220927033434 71 8 3.0 5.0 0.00 0.00 0.00 39 1054.1
20220927032932 72 9 3.0 5.0 0.00 0.00 0.00 39 1054.0
20220927032430 72 11 2.0 6.0 0.00 0.00 0.00 39 1054.1
20220927031930 72 350 2.0 5.0 0.00 0.00 0.00 39 1054.0
20220927031429 72 10 2.0 4.0 0.00 0.00 0.00 39 1053.9
20220927030928 73 15 2.0 4.0 0.00 0.00 0.00 38 1053.9
20220927030426 73 0 3.0 5.0 0.00 0.00 0.00 38 1053.9
20220927025926 73 0 3.0 5.0 0.00 0.00 0.00 38 1053.8
20220927025426 73 27 3.0 4.0 0.00 0.00 0.00 38 1053.8
20220927024925 73 0 3.0 4.0 0.00 0.00 0.00 38 1053.6
20220927024423 73 8 2.0 4.0 0.00 0.00 0.00 38 1053.5
20220927023921 74 80 2.0 4.0 0.00 0.00 0.00 37 1053.6
20220927023420 74 0 3.0 4.0 0.00 0.00 0.00 37 1053.3
20220927022919 75 53 2.0 4.0 0.00 0.00 0.00 37 1053.6
20220927022418 75 14 3.0 5.0 0.00 0.00 0.00 36 1053.3
20220927021916 75 23 3.0 5.0 0.00 0.00 0.00 36 1053.5
20220927021415 76 358 3.0 5.0 0.00 0.00 0.00 35 1053.2
20220927020915 76 94 3.0 5.0 0.00 0.00 0.00 35 1053.2
20220927020414 76 27 4.0 5.0 0.00 0.00 0.00 35 1053.3
20220927015911 77 18 1.0 6.0 0.00 0.00 0.00 34 1053.0
20220927015411 77 0 0.0 6.0 0.00 0.00 0.00 34 1053.0
20220927014911 77 13 5.0 6.0 0.00 0.00 0.00 34 1053.0
20220927014410 77 15 3.0 7.0 0.00 0.00 0.00 33 1052.8
20220927013910 78 9 4.0 7.0 0.00 0.00 0.00 33 1053.0
20220927013409 78 0 4.0 6.0 0.00 0.00 0.00 33 1052.7
20220927012909 78 26 1.0 7.0 0.00 0.00 0.00 33 1052.7
20220927012407 78 78 5.0 7.0 0.00 0.00 0.00 32 1052.7
20220927011907 79 63 3.0 7.0 0.00 0.00 0.00 32 1052.5
20220927011405 79 73 4.0 7.0 0.00 0.00 0.00 31 1052.4
20220927010904 80 27 6.0 8.0 0.00 0.00 0.00 31 1052.4
20220927010404 80 75 3.0 6.0 0.00 0.00 0.00 31 1052.5
20220927005903 80 2 8.0 8.0 0.00 0.00 0.00 31 1052.4
20220927005402 81 5 5.0 9.0 0.00 0.00 0.00 31 1052.3
20220927004901 81 82 3.0 9.0 0.00 0.00 0.00 31 1052.0
20220927004359 81 68 5.0 10.0 0.00 0.00 0.00 30 1052.1
20220927003858 82 23 6.0 10.0 0.00 0.00 0.00 30 1052.1
20220927003357 82 70 4.0 7.0 0.00 0.00 0.00 30 1052.0
20220927002855 82 63 4.0 10.0 0.00 0.00 0.00 30 1052.1
20220927002355 83 86 3.0 8.0 0.00 0.00 0.00 29 1051.9
20220927001853 83 9 6.0 10.0 0.00 0.00 0.00 29 1051.9
20220927001353 84 15 5.0 7.0 0.00 0.00 0.00 28 1051.8
20220927000852 84 71 2.0 9.0 0.00 0.00 0.00 28 1051.7
20220927000352 85 63 9.0 14.0 0.00 0.00 0.00 28 1051.6
20220926235851 85 77 7.0 8.0 0.00 0.00 0.00 27 1051.6
20220926235351 85 70 7.0 11.0 0.00 0.00 0.00 27 1051.5
20220926234850 86 82 5.0 9.0 0.00 0.00 0.00 27 1051.1
20220926234349 86 95 4.0 9.0 0.00 0.00 0.00 27 1051.3
20220926233847 86 51 6.0 13.0 0.00 0.00 0.00 27 1051.2
20220926233345 87 42 3.0 10.0 0.00 0.00 0.00 26 1051.1
20220926232844 87 74 2.0 8.0 0.00 0.00 0.00 27 1051.0
20220926232343 87 86 11.0 13.0 0.00 0.00 0.00 26 1051.1
20220926231843 87 81 10.0 13.0 0.00 0.00 0.00 26 1050.9
20220926231341 87 48 5.0 14.0 0.00 0.00 0.00 26 1051.0
20220926230839 88 75 6.0 12.0 0.00 0.00 0.00 26 1050.9
20220926230339 88 48 2.0 10.0 0.00 0.00 0.00 26 1051.0
20220926225838 88 97 7.0 11.0 0.00 0.00 0.00 27 1050.8
20220926225334 88 83 7.0 13.0 0.00 0.00 0.00 26 1051.0
20220926224833 88 46 6.0 13.0 0.00 0.00 0.00 26 1050.8
20220926224332 89 70 2.0 11.0 0.00 0.00 0.00 26 1050.8
20220926223831 88 67 5.0 14.0 0.00 0.00 0.00 26 1050.7
20220926223329 89 90 7.0 14.0 0.00 0.00 0.00 25 1050.8
20220926222829 89 20 6.0 13.0 0.00 0.00 0.00 25 1050.7
20220926222329 89 93 4.0 9.0 0.00 0.00 0.00 25 1051.0
20220926221827 89 78 6.0 14.0 0.00 0.00 0.00 25 1050.9
20220926221325 89 37 7.0 10.0 0.00 0.00 0.00 25 1050.9
20220926220824 89 12 8.0 18.0 0.00 0.00 0.00 25 1051.1
20220926220324 89 18 9.0 14.0 0.00 0.00 0.00 25 1051.1
20220926215822 89 69 6.0 14.0 0.00 0.00 0.00 24 1051.1
20220926215320 90 24 4.0 10.0 0.00 0.00 0.00 25 1050.9
20220926214820 90 13 5.0 12.0 0.00 0.00 0.00 25 1050.9